sat.trackr.live / text

‹ back to catalog

UM5-RIBAT

NORAD 60554 · 2024-149CQ

PAYLOAD ACTIVE UNKNOWN

§ Identity

Operator
Country
MA
Launch date
2024-08-16
Launch site
AFWTR
Launch vehicle
Mass (kg)
RCS (m²)

External: N2YO · Heavens-Above · Gunter

§ Orbital elements

Epoch: 2026-09-22T17:11:33.834048Z

Period
95.91 min
Inclination
97.6374°
Eccentricity
0.0003855
Mean motion
15.01434919 rev/d
Perigee alt
559.8 km
Apogee alt
565.1 km
Semi-major
6,940.6 km
B*
1.0512e-4
RAAN
342.0971°
Arg perigee
115.5402°
Mean anomaly
244.6221°
Rev number
11,482

§ Raw data

UM5-RIBAT1 60554U 24149CQ  26265.71636382  .00001298  00000+0  10512-3 0  99982 60554  97.6374 342.0971 0003855 115.5402 244.6221 15.01434919114827

JSON: /api/v1/satellites/60554 · /tle

For live sub-satellite position, see the globe view (requires WebGL).

§ Visibility from observer

Set your observer location to see the next 7 days of passes ≥ 10°. The values pass through the URL so the page stays shareable.

No JS? Fill the form by hand. The geolocation button needs JavaScript.

§ Radio — SatNOGS DB

ModeDescriptionDownlinkUplink
GFSK Mode U - GFSK2k4 401.100 MHz
FSK AX.100 Mode 5 Mode U - Telemetry 401.600 MHz
BPSK S-band telemetry 2.208 GHz

3 transmitters · refreshed weekly from db.satnogs.org